[[{"header":{"parameterUnit":"m.s-1","parameterCategory":1,"la1":30.2991,"la2":30.254,"lo1":-89.0895,"lo2":-89.0444,"dy":0.0017,"dx":0.0017,"nx":28,"ny":28,"refTime":"2023-11-05T03:00:00:Z","depth":0,"parameterNumber":2,"parameterNumberName":"U-component_of_WINDS"},"data":[0,0,0,0,0,0,0,0,0,0,0,0,0,0,0,0,0,0,0,0,0,0,0,0,0,0,0,0,0,0,0,0,0,0,0,0,0,0,0,0,0,0,0,0,0,0,0,0,0,0,0,0,0,0,0,0,0,0,0.7419,0.742,0,0.7438,0.7438,0.7438,0.7398,0.7396,0.7395,0.7394,0.7418,0.7419,0.7421,0,0,0,0,0,0,0,0,0,0,0,0,0,0.7352,0.7353,0.7419,0.742,0.742,0.7438,0.7438,0.7438,0.7398,0.7396,0.7395,0.7393,0.7417,0.7419,0.7421,0,0,0,0,0,0,0,0,0,0,0,0,0,0.7377,0.7354,0.7419,0.7402,0.74,0.7438,0.7438,0.7439,0.7398,0.7396,0.7394,0.7392,0.7416,0.7419,0.7422,0.7479,0,0,0.743,0.7431,0,0,0,0,0,0,0,0,0.7376,0.738,0.7404,0.7403,0.7401,0.7413,0.7423,0.7452,0.7399,0.7399,0.7394,0.7391,0.7418,0.7421,0.7429,0.748,0.7481,0.7431,0.7432,0.7433,0.7434,0,0,0,0,0,0,0,0.7374,0.7379,0.7427,0.7404,0.7403,0.7394,0.7395,0.7428,0.742,0.7399,0.7396,0.7398,0.7417,0.7426,0.7429,0.7481,0.743,0.7433,0.7435,0.7436,0.758,0.7582,0,0,0,0,0,0,0.7374,0.7377,0.7426,0.7427,0.7383,0.7397,0.7398,0.7412,0.7419,0.7418,0.74,0.7397,0.7422,0.7426,0.743,0.7497,0.7433,0.7436,0.7438,0.7578,0.758,0.7582,0,0,0,0,0,0,0.7373,0.7379,0.7426,0.7402,0.7407,0.74,0.7415,0.7413,0.7422,0.742,0.7419,0.7411,0.7421,0.7426,0.7466,0.7497,0.7437,0.744,0.7575,0.7578,0.7581,0.7631,0,0,0,0,0,0,0.7371,0.7378,0.74,0.7402,0.7408,0.7461,0.7417,0.7415,0.7426,0.7422,0.743,0.7429,0.742,0.7462,0.7469,0.75,0.7442,0.7572,0.7576,0.758,0.7627,0.7636,0.7644,0,0,0,0,0,0.7369,0.7414,0.7401,0.7407,0.7434,0.7463,0.7467,0.7453,0.7429,0.7451,0.7449,0.7429,0.7492,0.7467,0.7474,0.7506,0.757,0.7575,0.758,0.7623,0.7634,0.7643,0,0,0,0,0,0,0.7418,0.7414,0.74,0.7447,0.7455,0.7456,0.7483,0.7466,0.7482,0.7478,0.7462,0.7464,0.7508,0.7511,0.7483,0.7561,0.7527,0.7534,0.7558,0.7568,0.7576,0.7575,0.7444,0,0,0,0,0,0.7434,0.7456,0.7452,0.7495,0.75,0.7491,0.7503,0.7491,0.75,0.7504,0.7506,0.7516,0.7538,0.7553,0.7573,0.7627,0.7628,0.7652,0.766,0.7667,0.7674,0.7701,0.7712,0.7598,0.7598,0.7598,0,0,0.7468,0.7469,0.7484,0.7505,0.751,0.7534,0.7494,0.7522,0.754,0.7509,0.7547,0.7548,0.7559,0.7606,0.7627,0.761,0.7705,0.7673,0.7679,0.7681,0.7707,0.7718,0.7728,0.7601,0.7601,0.76,0,0,0.7543,0.7545,0.7581,0.7586,0.7593,0.7586,0.7595,0.7597,0.7597,0.7634,0.761,0.7632,0.7671,0.7679,0.7688,0.7763,0.7745,0.777,0.7814,0.7841,0.785,0.7858,0.7885,0.7895,0.7776,0.7776,0.7776,0,0.7585,0.762,0.7602,0.763,0.764,0.761,0.7646,0.7652,0.7667,0.7675,0.7655,0.7701,0.7706,0.7754,0.7772,0.7781,0.779,0.777,0.785,0.7858,0.7865,0.7891,0.7901,0.7779,0.7779,0.7779,0.7778,0,0.7671,0.7695,0.7723,0.7735,0.7748,0.778,0.7768,0.7783,0.777,0.7765,0.7804,0.7808,0.7828,0.7838,0.7827,0.7885,0.7874,0.7852,0.7818,0.7879,0.7903,0.7913,0.7783,0.7782,0.7782,0.7781,0,0,0.778,0.7779,0.779,0.7794,0.7799,0.7818,0.7849,0.7866,0.788,0.789,0.7916,0.7948,0.7927,0.7937,0.7926,0.795,0.8009,0.7926,0.7926,0.7941,0.8073,0.809,0.8102,0.7997,0.7998,0.8,0.8072,0,0.7854,0.7905,0.7889,0.7941,0.7963,0.7933,0.796,0.7966,0.7963,0.7982,0.7978,0.8,0.7971,0.7977,0.7999,0.7997,0.8036,0.7992,0.8022,0.8023,0.8021,0.8114,0.8132,0.8201,0.8082,0.8083,0.8084,0,0.7948,0.7959,0.8013,0.8012,0.8021,0.8045,0.8059,0.8077,0.8084,0.8079,0.8089,0.8073,0.8103,0.8067,0.811,0.808,0.8091,0.8092,0.8094,0.8098,0.8058,0.8121,0.8222,0.8233,0.8099,0.8098,0.8096,0,0.8023,0.8051,0.8087,0.8092,0.8092,0.8109,0.811,0.8114,0.8125,0.8138,0.8145,0.8161,0.8171,0.8184,0.8173,0.8148,0.8217,0.8181,0.8215,0.8216,0.8232,0.8232,0.8338,0.8238,0.8238,0.8238,0.8238,0,0.8108,0.8142,0.812,0.8142,0.818,0.816,0.8198,0.8196,0.8199,0.8221,0.8196,0.8218,0.82,0.822,0.8211,0.8248,0.8252,0.825,0.8248,0.8253,0.8253,0.8261,0.8256,0.8241,0.824,0.8239,0.8239,0,0.8198,0.8185,0.8222,0.8217,0.8217,0.8244,0.8241,0.8262,0.8255,0.8282,0.8288,0.8278,0.83,0.8289,0.8312,0.8306,0.8353,0.8344,0.8351,0.8349,0.8384,0.8381,0.85,0.8514,0.8404,0.8405,0.8406,0,0.8254,0.8279,0.8277,0.8288,0.829,0.831,0.832,0.8301,0.8313,0.832,0.8341,0.8359,0.8374,0.841,0.8406,0.8424,0.8415,0.8455,0.8418,0.8422,0.8416,0.8415,0.8418,0.8464,0.8465,0.8466,0.8467,0,0.8355,0.8346,0.8361,0.8373,0.8385,0.8395,0.8402,0.8413,0.8394,0.8409,0.843,0.8441,0.8463,0.8483,0.8497,0.8499,0.8481,0.8478,0.8487,0.8493,0.8496,0.8495,0.8372,0.8476,0.8475,0.8474,0.8474,0.8474,0.8431,0.8451,0.8451,0.8468,0.8471,0.8478,0.8496,0.849,0.8507,0.8522,0.851,0.8535,0.8539,0.8556,0.856,0.858,0.8564,0.8577,0.8581,0.8585,0.8589,0.8492,0.8583,0.8582,0.8582,0.8582,0.8582,0,0.853,0.8528,0.8544,0.8553,0.8566,0.8544,0.855,0.8564,0.8585,0.8589,0.8603,0.8626,0.8644,0.864,0.8657,0.8673,0.8665,0.8678,0.8678,0.8678,0.8603,0.8593,0.8685,0.8685,0.8685,0.8685,0.8685,0.8685,0.8584,0.8617,0.8608,0.8642,0.864,0.8662,0.8668,0.8674,0.8677,0.8703,0.8717,0.8714,0.8715,0.8731,0.8746,0.8745,0.8752,0.8769,0.8765,0.8694,0.8684,0.8674,0.8665,0.8771,0.8771,0.8839,0.8839,0.884]},{"header":{"parameterUnit":"m.s-1","parameterCategory":1,"la1":30.2991,"la2":30.254,"lo1":-89.0895,"lo2":-89.0444,"dy":0.0017,"dx":0.0017,"nx":28,"ny":28,"refTime":"2023-11-05T03:00:00:Z","depth":0,"parameterNumber":3,"parameterNumberName":"V-component_of_WINDS"},"data":[0,0,0,0,0,0,0,0,0,0,0,0,0,0,0,0,0,0,0,0,0,0,0,0,0,0,0,0,0,0,0,0,0,0,0,0,0,0,0,0,0,0,0,0,0,0,0,0,0,0,0,0,0,0,0,0,0,0,-0.2116,-0.2116,0,-0.2166,-0.2166,-0.2167,-0.2193,-0.2193,-0.2193,-0.2193,-0.2246,-0.2248,-0.2249,0,0,0,0,0,0,0,0,0,0,0,0,0,-0.2046,-0.2048,-0.2116,-0.2116,-0.2117,-0.2165,-0.2166,-0.2167,-0.2193,-0.2193,-0.2193,-0.2193,-0.2246,-0.2248,-0.2249,0,0,0,0,0,0,0,0,0,0,0,0,0,-0.2084,-0.2048,-0.2116,-0.2136,-0.2138,-0.2165,-0.2166,-0.2167,-0.2193,-0.2193,-0.2193,-0.2193,-0.2245,-0.2247,-0.2249,-0.2261,0,0,-0.2256,-0.2257,0,0,0,0,0,0,0,0,-0.2082,-0.2087,-0.2132,-0.2134,-0.2137,-0.2173,-0.2161,-0.2199,-0.2193,-0.2172,-0.2193,-0.2193,-0.2222,-0.2226,-0.2235,-0.2263,-0.2266,-0.2256,-0.2257,-0.2258,-0.2259,0,0,0,0,0,0,0,-0.208,-0.2085,-0.2136,-0.2133,-0.2136,-0.2143,-0.2149,-0.2168,-0.2196,-0.2174,-0.2176,-0.2182,-0.2223,-0.2233,-0.2237,-0.2267,-0.2256,-0.2258,-0.2259,-0.226,-0.2309,-0.2309,0,0,0,0,0,0,-0.2073,-0.2083,-0.2134,-0.2137,-0.2109,-0.2145,-0.2151,-0.2162,-0.2196,-0.2201,-0.2181,-0.2183,-0.223,-0.2234,-0.2239,-0.2256,-0.2258,-0.226,-0.2261,-0.2309,-0.2309,-0.2309,0,0,0,0,0,0,-0.2072,-0.2078,-0.2132,-0.211,-0.2118,-0.2146,-0.2158,-0.2162,-0.2172,-0.2202,-0.2207,-0.2186,-0.223,-0.2236,-0.2256,-0.2258,-0.2261,-0.2263,-0.2309,-0.2309,-0.2309,-0.2289,0,0,0,0,0,0,-0.207,-0.2077,-0.2081,-0.211,-0.2119,-0.2147,-0.2158,-0.2163,-0.2176,-0.2178,-0.2208,-0.2213,-0.223,-0.2252,-0.2258,-0.2261,-0.2264,-0.2309,-0.2309,-0.2309,-0.2289,-0.2288,-0.2287,0,0,0,0,0,-0.2067,-0.2073,-0.2081,-0.2087,-0.2124,-0.2147,-0.2152,-0.2172,-0.2176,-0.218,-0.2199,-0.2212,-0.2257,-0.2254,-0.226,-0.2264,-0.2309,-0.2309,-0.2309,-0.229,-0.2288,-0.2287,0,0,0,0,0,0,-0.2043,-0.2077,-0.2086,-0.2102,-0.2121,-0.2151,-0.2157,-0.2169,-0.2188,-0.2189,-0.2214,-0.2221,-0.2238,-0.2253,-0.225,-0.2278,-0.2284,-0.2285,-0.2268,-0.2266,-0.2265,-0.2261,-0.2266,0,0,0,0,0,-0.204,-0.2054,-0.2084,-0.2095,-0.2104,-0.2129,-0.214,-0.2153,-0.2175,-0.2183,-0.2204,-0.2225,-0.2244,-0.2256,-0.2275,-0.2292,-0.23,-0.2298,-0.2297,-0.2296,-0.2296,-0.2308,-0.2308,-0.2309,-0.2309,-0.2309,0,0,-0.2033,-0.2053,-0.2061,-0.2091,-0.2107,-0.2123,-0.2136,-0.2152,-0.2164,-0.2186,-0.2206,-0.2222,-0.2247,-0.2266,-0.2275,-0.2279,-0.2298,-0.2296,-0.2295,-0.2296,-0.2308,-0.2308,-0.2308,-0.2309,-0.2309,-0.2309,0,0,-0.2028,-0.2045,-0.2056,-0.2073,-0.2098,-0.2115,-0.2118,-0.2146,-0.2158,-0.2178,-0.2195,-0.2211,-0.2243,-0.2261,-0.2274,-0.2278,-0.229,-0.2284,-0.2278,-0.2289,-0.2289,-0.2289,-0.2291,-0.2292,-0.2285,-0.2284,-0.2284,0,-0.2016,-0.204,-0.2061,-0.2076,-0.2089,-0.211,-0.2123,-0.2138,-0.2168,-0.2177,-0.2181,-0.2223,-0.2241,-0.2265,-0.2266,-0.2276,-0.2281,-0.228,-0.2287,-0.2287,-0.2288,-0.229,-0.2291,-0.2284,-0.2284,-0.2284,-0.2284,0,-0.2025,-0.2041,-0.2048,-0.2076,-0.209,-0.2104,-0.2128,-0.214,-0.2153,-0.217,-0.2192,-0.2215,-0.2239,-0.2246,-0.2259,-0.2272,-0.2274,-0.2282,-0.2288,-0.2286,-0.2289,-0.229,-0.2282,-0.2283,-0.2283,-0.2283,0,0,-0.2006,-0.2046,-0.2049,-0.2062,-0.2092,-0.2106,-0.2122,-0.2145,-0.2156,-0.2177,-0.2191,-0.2219,-0.2227,-0.2242,-0.2257,-0.2267,-0.227,-0.2274,-0.2275,-0.2273,-0.2288,-0.2282,-0.2282,-0.2278,-0.2279,-0.2279,-0.2286,0,-0.2006,-0.2034,-0.2054,-0.2074,-0.2091,-0.2111,-0.2125,-0.2146,-0.2163,-0.218,-0.2199,-0.2218,-0.2227,-0.2236,-0.2247,-0.2267,-0.2273,-0.2267,-0.2293,-0.2294,-0.2286,-0.2284,-0.2277,-0.2282,-0.2287,-0.2287,-0.2287,0,-0.2009,-0.2029,-0.2051,-0.2081,-0.2089,-0.21,-0.2125,-0.2141,-0.2165,-0.2177,-0.2194,-0.221,-0.2229,-0.2234,-0.2262,-0.2257,-0.227,-0.2282,-0.2282,-0.2286,-0.229,-0.2288,-0.2284,-0.2285,-0.2289,-0.2289,-0.2289,0,-0.1994,-0.2026,-0.2044,-0.2055,-0.209,-0.2098,-0.2113,-0.2138,-0.2152,-0.2174,-0.2183,-0.2207,-0.222,-0.2239,-0.2262,-0.2263,-0.2287,-0.2294,-0.2299,-0.2298,-0.2303,-0.2302,-0.2302,-0.231,-0.231,-0.231,-0.231,0,-0.1992,-0.2005,-0.2038,-0.2049,-0.2065,-0.2088,-0.2104,-0.2121,-0.2143,-0.2159,-0.2178,-0.2193,-0.2222,-0.2241,-0.2259,-0.2279,-0.2285,-0.2296,-0.2301,-0.2294,-0.2293,-0.2303,-0.2303,-0.231,-0.231,-0.231,-0.231,0,-0.1977,-0.2,-0.2021,-0.2052,-0.2061,-0.2071,-0.2099,-0.2111,-0.2129,-0.2149,-0.2155,-0.2184,-0.2207,-0.2232,-0.2263,-0.2276,-0.2296,-0.2302,-0.2287,-0.229,-0.2294,-0.2293,-0.23,-0.2303,-0.2308,-0.2308,-0.2308,0,-0.1974,-0.1985,-0.2018,-0.203,-0.2044,-0.2063,-0.2077,-0.2101,-0.2115,-0.2145,-0.2154,-0.2179,-0.22,-0.2236,-0.2261,-0.2286,-0.2293,-0.2294,-0.2297,-0.2291,-0.2294,-0.2293,-0.2295,-0.2293,-0.2292,-0.2292,-0.2292,0,-0.1968,-0.1979,-0.1998,-0.2021,-0.2038,-0.2057,-0.2078,-0.2087,-0.2116,-0.2131,-0.2155,-0.2171,-0.2203,-0.2228,-0.2256,-0.2273,-0.2288,-0.2291,-0.2294,-0.2287,-0.2278,-0.2284,-0.2285,-0.2291,-0.2291,-0.2291,-0.2291,-0.2291,-0.1959,-0.197,-0.1995,-0.2017,-0.2035,-0.2054,-0.2068,-0.2088,-0.2108,-0.2136,-0.2149,-0.2173,-0.22,-0.2239,-0.2256,-0.2276,-0.228,-0.2284,-0.2285,-0.2285,-0.2284,-0.2275,-0.2281,-0.2281,-0.2281,-0.2281,-0.2281,0,-0.1954,-0.1972,-0.1991,-0.2019,-0.2037,-0.2048,-0.2073,-0.2086,-0.2107,-0.213,-0.215,-0.2179,-0.2203,-0.223,-0.2257,-0.2268,-0.2275,-0.2274,-0.2274,-0.2278,-0.2278,-0.2274,-0.2268,-0.2268,-0.2268,-0.2268,-0.2268,-0.2268,-0.1953,-0.1973,-0.1987,-0.2017,-0.2034,-0.2057,-0.207,-0.2089,-0.2108,-0.2138,-0.2158,-0.2176,-0.2201,-0.223,-0.2253,-0.2261,-0.227,-0.2267,-0.2276,-0.2276,-0.2277,-0.2279,-0.2274,-0.2269,-0.2269,-0.2275,-0.2275,-0.2275]}]]